Weather in Hamelin

Germany     52°06′20″N   9°21′06″E
temp.,
°C
wind,
m/s
gust,
m/s
humid.,
%
clouds,
%
prec.,
mm/h
press.,
hPa
HPBL,
m
4 july, mon
mon423:00+14wnw22800 0.1 101826
02:00+12w11910 0.1 101911
05:00+11wsw11950 0.0 101913
08:00+15wsw247925 0.0 1020475
11:00+19w45505 0.0 10201436
14:00+22w354024 0.0 10192179
17:00+24wsw463529 0.0 10182588
20:00+20nw375415 0.0 1018724
5 july, tue
tue523:00+14nw21770 0.0 102011
02:00+12n11885 0.0 102010
05:00+11sw119129 0.0 102012
08:00+16w11715 0.0 1021273
11:00+20wnw2449100 0.0 10211371
14:00+20wnw4551100 0.0 10211313
17:00+21wnw474533 0.0 10201581
20:00+17nw3662100 0.0 1021607
6 july, wed
wed623:00+15nw377184 0.0 1023532
02:00+10w11950 0.0 102410
05:00+8wsw22977 0.0 102420
08:00+12w258199 0.0 1025420
11:00+16w4556100 0.1 10241495
14:00+20w463999 0.1 10232047
17:00+20w5643100 0.0 10221806
20:00+17wsw2761100 0.0 1021327
7 july, thu
thu723:00+13wsw31098100 0.9 1020478
02:00+14wsw41099100 3.1 1019657
05:00+14wsw51099100 0.6 1017640
08:00+14w51198100 2.6 1017668
11:00+16wnw51093100 1.3 1016881
14:00+16nw6108854 3.3 10181117
17:00+16nw611720 0.9 10201264
20:00+15nw710660 0.9 10221330
8 july, fri
fri823:00+13nw51072100 0.0 10241283
02:00+13nw51064100 0.0 10251366
05:00+13wnw4866100 0.0 10261028
08:00+13nw58743 0.0 1027814
11:00+15nw5766100 0.1 10271320
14:00+16wnw5766100 0.1 10271266
17:00+16wnw4774100 0.1 1027955
20:00+16wnw378360 0.2 1026632